When you browse on this site, cookies collect data to enhance your experience and personalize the content and advertising you see.
Visit our Privacy Policy to learn more. By continuing to use the site, you agree to this use of cookies and data.
  • Em Portugal
  • Lista de países
  • Para 7 dias
  • Temperatura da água
  • Mapas de satélite
  • Mapa do tempo
  • Widgets de tempo
  • user-avatar
    Iniciar Sessão

    Previsão horária em Jozefow

    Hoje, 14 Dezembro, Sexta-feira

    Tempo Temperatura Precipitação Vento Pressão Humidade
    00:00 -2°C° 0 mm 2 m/s 752 mmHg 85%
    01:00 -2°C° 0 mm 2 m/s 753 mmHg 86%
    02:00 -2°C° 0 mm 2 m/s 753 mmHg 86%
    03:00 -2°C° 0 mm 2 m/s 753 mmHg 86%
    04:00 -2°C° 0 mm 2 m/s 753 mmHg 86%
    05:00 -3°C° 0 mm 2 m/s 753 mmHg 87%
    06:00 -3°C° 0 mm 2 m/s 753 mmHg 88%
    07:00 -3°C° 0 mm 2 m/s 753 mmHg 90%
    08:00 -3°C° 0 mm 2 m/s 753 mmHg 88%
    09:00 -2°C° 0 mm 2 m/s 753 mmHg 86%
    10:00 -2°C° 0 mm 2 m/s 754 mmHg 84%
    11:00 -1°C° 0 mm 2 m/s 754 mmHg 84%
    12:00 -1°C° 0 mm 2 m/s 754 mmHg 83%
    13:00 -1°C° 0 mm 2 m/s 754 mmHg 82%
    14:00 -1°C° 0 mm 2 m/s 754 mmHg 85%
    15:00 -1°C° 0 mm 2 m/s 754 mmHg 87%
    16:00 +1°C° 0 mm 1 m/s 754 mmHg 89%
    17:00 -1°C° 0 mm 2 m/s 754 mmHg 90%
    18:00 -2°C° 0 mm 2 m/s 754 mmHg 91%
    19:00 -2°C° 0 mm 2 m/s 754 mmHg 92%
    20:00 -2°C° 0 mm 2 m/s 755 mmHg 92%
    21:00 -2°C° 0 mm 2 m/s 755 mmHg 92%
    22:00 -2°C° 0 mm 2 m/s 755 mmHg 92%
    23:00 -2°C° 0 mm 2 m/s 755 mmHg 91%

    Amanhã, 15 Dezembro, Sábado

    Tempo Temperatura Precipitação Vento Pressão Humidade
    00:00 -2°C° 0 mm 3 m/s 755 mmHg 89%
    01:00 -2°C° 0 mm 3 m/s 755 mmHg 88%
    02:00 -4°C° 0 mm 3 m/s 755 mmHg 88%
    03:00 -4°C° 0 mm 3 m/s 755 mmHg 88%
    04:00 -4°C° 0 mm 3 m/s 755 mmHg 88%
    05:00 -5°C° 0 mm 3 m/s 755 mmHg 88%
    06:00 -5°C° 0 mm 3 m/s 755 mmHg 88%
    07:00 -5°C° 0 mm 4 m/s 755 mmHg 87%
    08:00 -4°C° 0 mm 4 m/s 755 mmHg 85%
    09:00 -5°C° 0 mm 5 m/s 755 mmHg 82%
    10:00 -4°C° 0 mm 5 m/s 756 mmHg 79%
    11:00 -4°C° 0 mm 6 m/s 755 mmHg 77%
    12:00 -3°C° 0 mm 6 m/s 755 mmHg 75%
    13:00 -3°C° 0 mm 6 m/s 755 mmHg 74%
    14:00 -4°C° 0 mm 6 m/s 755 mmHg 75%
    15:00 -4°C° 0 mm 6 m/s 755 mmHg 77%
    16:00 -4°C° 0 mm 6 m/s 755 mmHg 78%
    17:00 -4°C° 0.2 mm 6 m/s 755 mmHg 80%
    18:00 -5°C° 0.2 mm 6 m/s 754 mmHg 82%
    19:00 -5°C° 0.2 mm 6 m/s 754 mmHg 84%
    20:00 -5°C° 0.3 mm 6 m/s 754 mmHg 84%
    21:00 -5°C° 0.3 mm 6 m/s 754 mmHg 85%
    22:00 -5°C° 0.3 mm 6 m/s 754 mmHg 86%
    23:00 -5°C° 0.2 mm 6 m/s 753 mmHg 85%

    Depois de amanhã, 16 Dezembro, Domingo

    Tempo Temperatura Precipitação Vento Pressão Humidade
    00:00 -5°C° 0.2 mm 6 m/s 753 mmHg 85%
    01:00 -5°C° 0.2 mm 6 m/s 753 mmHg 85%
    02:00 -5°C° 0.1 mm 5 m/s 752 mmHg 85%
    03:00 -5°C° 0.1 mm 5 m/s 752 mmHg 86%
    04:00 -5°C° 0.1 mm 5 m/s 751 mmHg 86%
    05:00 -5°C° 0.1 mm 5 m/s 751 mmHg 87%
    06:00 -3°C° 0.1 mm 4 m/s 751 mmHg 87%
    07:00 -3°C° 0.1 mm 4 m/s 751 mmHg 88%
    08:00 -3°C° 0.1 mm 4 m/s 751 mmHg 88%
    09:00 -3°C° 0.1 mm 4 m/s 751 mmHg 88%
    10:00 -3°C° 0.1 mm 4 m/s 751 mmHg 88%
    11:00 -2°C° 0.2 mm 4 m/s 751 mmHg 88%
    12:00 -1°C° 0.2 mm 3 m/s 750 mmHg 89%
    13:00 -1°C° 0.2 mm 3 m/s 750 mmHg 90%
    14:00 -1°C° 0.1 mm 2 m/s 750 mmHg 91%
    15:00 -1°C° 0.1 mm 2 m/s 750 mmHg 92%
    16:00 -1°C° 0.1 mm 2 m/s 750 mmHg 93%
    17:00 -2°C° 0 mm 2 m/s 750 mmHg 93%
    18:00 -2°C° 0 mm 2 m/s 751 mmHg 93%
    19:00 -2°C° 0 mm 2 m/s 751 mmHg 94%
    20:00 -2°C° 0 mm 2 m/s 751 mmHg 94%
    21:00 -2°C° 0 mm 2 m/s 751 mmHg 94%
    22:00 -2°C° 0 mm 2 m/s 751 mmHg 93%
    23:00 -2°C° 0 mm 2 m/s 751 mmHg 93%

    17 Dezembro, Segunda-feira

    Tempo Temperatura Precipitação Vento Pressão Humidade
    00:00 -3°C° 0 mm 2 m/s 751 mmHg 93%
    01:00 -3°C° 0 mm 2 m/s 751 mmHg 93%
    02:00 -3°C° 0 mm 2 m/s 751 mmHg 92%
    03:00 -3°C° 0 mm 2 m/s 751 mmHg 92%
    04:00 -1°C° 0 mm 1 m/s 751 mmHg 92%
    05:00 -1°C° 0 mm 1 m/s 751 mmHg 91%
    06:00 -1°C° 0 mm 1 m/s 751 mmHg 90%
    07:00 -1°C° 0 mm 1 m/s 752 mmHg 90%
    08:00 0°C° 0 mm 1 m/s 752 mmHg 88%
    09:00 0°C° 0 mm 1 m/s 752 mmHg 86%
    10:00 +1°C° 0 mm 1 m/s 752 mmHg 84%
    11:00 +1°C° 0 mm 1 m/s 752 mmHg 84%
    12:00 +2°C° 0 mm 1 m/s 753 mmHg 85%
    13:00 +1°C° 0 mm 0 m/s 753 mmHg 85%
    14:00 0°C° 0 mm 0 m/s 753 mmHg 86%
    15:00 0°C° 0 mm 0 m/s 753 mmHg 86%
    16:00 0°C° 0 mm 0 m/s 754 mmHg 86%
    17:00 -1°C° 0 mm 0 m/s 754 mmHg 86%
    18:00 -1°C° 0 mm 0 m/s 754 mmHg 86%
    19:00 -1°C° 0 mm 0 m/s 755 mmHg 86%
    20:00 -1°C° 0 mm 0 m/s 755 mmHg 86%
    21:00 -1°C° 0 mm 0 m/s 755 mmHg 86%
    22:00 -1°C° 0 mm 0 m/s 755 mmHg 87%
    23:00 0°C° 0 mm 1 m/s 755 mmHg 87%

    18 Dezembro, Terça-feira

    Tempo Temperatura Precipitação Vento Pressão Humidade
    00:00 0°C° 0 mm 1 m/s 756 mmHg 88%
    01:00 -1°C° 0 mm 1 m/s 756 mmHg 88%
    02:00 -1°C° 0 mm 1 m/s 756 mmHg 89%
    03:00 -1°C° 0 mm 1 m/s 756 mmHg 89%
    04:00 -2°C° 0 mm 0 m/s 756 mmHg 90%
    05:00 -1°C° 0 mm 1 m/s 756 mmHg 90%
    06:00 -1°C° 0 mm 1 m/s 756 mmHg 90%
    07:00 -2°C° 0 mm 1 m/s 757 mmHg 91%
    08:00 -1°C° 0 mm 1 m/s 757 mmHg 90%
    09:00 -1°C° 0 mm 0 m/s 757 mmHg 88%
    10:00 -1°C° 0 mm 0 m/s 757 mmHg 87%
    11:00 0°C° 0 mm 0 m/s 757 mmHg 87%
    12:00 0°C° 0 mm 0 m/s 756 mmHg 86%
    13:00 +1°C° 0 mm 1 m/s 756 mmHg 86%
    14:00 +1°C° 0 mm 1 m/s 756 mmHg 88%
    15:00 0°C° 0 mm 1 m/s 756 mmHg 89%
    16:00 0°C° 0 mm 1 m/s 756 mmHg 91%
    17:00 0°C° 0 mm 1 m/s 756 mmHg 91%
    18:00 -2°C° 0 mm 2 m/s 756 mmHg 91%
    19:00 -2°C° 0 mm 2 m/s 756 mmHg 91%
    20:00 -2°C° 0 mm 2 m/s 756 mmHg 91%
    21:00 -2°C° 0 mm 2 m/s 756 mmHg 91%
    22:00 -2°C° 0 mm 2 m/s 756 mmHg 91%
    23:00 -3°C° 0 mm 2 m/s 756 mmHg 91%

    19 Dezembro, Quarta-feira

    Tempo Temperatura Precipitação Vento Pressão Humidade
    00:00 -3°C° 0 mm 2 m/s 756 mmHg 92%
    01:00 -3°C° 0 mm 2 m/s 755 mmHg 92%
    02:00 -3°C° 0 mm 2 m/s 755 mmHg 93%
    03:00 -3°C° 0 mm 2 m/s 755 mmHg 93%
    04:00 -4°C° 0 mm 3 m/s 754 mmHg 94%
    05:00 -4°C° 0 mm 3 m/s 754 mmHg 93%
    06:00 -4°C° 0 mm 3 m/s 754 mmHg 93%
    07:00 -4°C° 0 mm 3 m/s 754 mmHg 92%
    08:00 -2°C° 0 mm 3 m/s 754 mmHg 91%
    09:00 -2°C° 0 mm 3 m/s 754 mmHg 90%
    10:00 -1°C° 0 mm 3 m/s 754 mmHg 88%
    11:00 -1°C° 0 mm 3 m/s 753 mmHg 88%
    12:00 -1°C° 0 mm 3 m/s 753 mmHg 87%
    13:00 0°C° 0 mm 3 m/s 752 mmHg 86%
    14:00 -1°C° 0 mm 3 m/s 752 mmHg 87%
    15:00 -1°C° 0 mm 3 m/s 752 mmHg 88%
    16:00 -1°C° 0 mm 3 m/s 752 mmHg 89%
    17:00 -1°C° 0 mm 3 m/s 752 mmHg 89%
    18:00 -2°C° 0 mm 3 m/s 752 mmHg 89%
    19:00 -2°C° 0 mm 3 m/s 752 mmHg 89%
    20:00 -2°C° 0 mm 3 m/s 752 mmHg 89%
    21:00 -2°C° 0 mm 3 m/s 752 mmHg 89%
    22:00 -2°C° 0 mm 3 m/s 752 mmHg 89%
    23:00 -2°C° 0 mm 2 m/s 751 mmHg 89%
    Mostrar mais